User: anonymous   Login
Location: Morehead State University
(38.1872°N, 83.4339°W)
Time: 18:31:32
(UTC-04:00)
Language:

Okean 2 - Orbit

View from above orbital plane
View from above orbital plane
View from above satellite
View from above satellite

Ground track
Ground track

The orbit data is extracted from the following two-line orbital elements,

1 20510U 90018A   16268.99445868  .00000698  00000-0  55789-4 0  9993
2 20510  82.5144  66.0433 0013052 151.8596 351.1928 14.98669316441722
Epoch (UTC): 24 September 2016 23:52:01
Eccentricity: 0.0013052
inclination: 82.5144°
perigee height: 562 km
apogee height: 580 km
right ascension of ascending node: 66.0433°
argument of perigee: 151.8596°
revolutions per day: 14.98669316
mean anomaly at epoch: 351.1928°
orbit number at epoch: 44172

The dashed part of the orbit path shows where the satellite is in the earth's shadow,  

DLR